User: anonymous
Location: Melbourne
(37.8170°S, 144.9670°E)
Time: 00:04:08
(UTC+10:00)
Language:

Cosmos 962 Rocket - Orbit

View from above orbital plane
View from above orbital plane
View from above satellite
View from above satellite

Ground track
Ground track

The orbit data is extracted from the following two-line orbital elements,

1 10461U 77107B   14238.09833558  .00000005  00000-0 -10904-4 0  6275
2 10461 082.9468 055.1106 0034541 138.7318 000.5247 13.76697872849585
Epoch (UTC): 26 August 2014 02:21:36
Eccentricity: 0.0034541
inclination: 82.9468°
perigee height: 950 km
apogee height: 1001 km
right ascension of ascending node: 55.1106°
argument of perigee: 138.7318°
revolutions per day: 13.76697872
mean anomaly at epoch: 0.5247°
orbit number at epoch: 84958

The dashed part of the orbit path shows where the satellite is in the earth's shadow,  

DLR